CASSIOPE (39265 NORAD) Tracking and Keplerian Element Data

This shows tracking and keplerian element data for the satellite.

Feedback or suggestion? Click here.




ElementValue
Catalog39265
NameCASSIOPE
Epoch Orbit26509
Epoch Day319.97106706
Epoch Year2018
RAAN198.762
Inclination80.97
Eccentricity0.0672644
Argument of Perigee192.8821
Mean Anonmoly165.442
Mean Motion14.26478586
Decay Rate2.505E-05
L11 39265U 13055A 18319.97106706 .00002505 00000-0 71586-4 0 9990
L22 39265 80.9700 198.7620 0672644 192.8821 165.4420 14.26478586265099

Live tracking and technical data element details for CASSIOPE (NORAD 39265). CASSIOPE can be tracked NOW for your location showing map with azimuth and elevation plus other details from your city location.

Track the satellite on the map from your city or location and see movement details for azimuth, elevation, latitude, longitude, range, height, and movement on the map or in text.







IsCatalogInMostPopularTable: catalog: 39265, numindb: 98
Update: records affected: 1



GetName: 39265 CASSIOPE

Hit Count: updated at: Fri, 16 Nov 2018 06:20:43 GMT